This is the latest recevied weather packets stored in our database for station/object K5KVN. If no packets are shown the sender has not sent any weather packets the latest 10 day(s).
| Time | Temp. | Humidity | Pressure | Rain* | Wind** | Luminosity | Snow |
|---|---|---|---|---|---|---|---|
| 1777820878 | 18.33° C | 57% | 1019.7 hPa | 0 mm | - | - | - |
| 1777820278 | 18.33° C | 55% | 1019.9 hPa | 0 mm | - | - | - |
| 1777819739 | 17.78° C | 56% | 1019.8 hPa | 0 mm | - | - | - |
| 1777819079 | 16.67° C | 59% | 1020 hPa | 0 mm | - | - | - |
| 1777818478 | 16.11° C | 60% | 1020.1 hPa | 0 mm | - | - | - |
| 1777817879 | 15° C | 65% | 1020 hPa | 0 mm | - | - | - |
| 1777817278 | 14.44° C | 67% | 1020 hPa | 0 mm | - | - | - |
| 1777816679 | 13.89° C | 66% | 1020 hPa | 0 mm | - | - | - |
| 1777816081 | 13.33° C | 67% | 1020 hPa | 0 mm | - | - | - |
| 1777815477 | 12.78° C | 71% | 1020 hPa | 0 mm | - | - | - |
| 1777814876 | 11.67° C | 71% | 1020 hPa | 0 mm | - | - | - |
| 1777814277 | 11.11° C | 73% | 1020 hPa | 0 mm | - | - | - |
| 1777813678 | 10° C | 78% | 1020 hPa | 0 mm | - | - | - |
| 1777813078 | 8.89° C | 85% | 1020.1 hPa | 0 mm | - | - | - |
| 1777812476 | 7.78° C | 89% | 1020.1 hPa | 0 mm | - | - | - |
| 1777811877 | 5.56° C | 94% | 1020.2 hPa | 0 mm | - | - | - |
| 1777811278 | 5° C | 93% | 1020.1 hPa | 0 mm | - | - | - |
| 1777810677 | 4.44° C | 93% | 1020.1 hPa | 0 mm | - | - | - |
| 1777810078 | 4.44° C | 93% | 1020 hPa | 0 mm | - | - | - |
| 1777809477 | 4.44° C | 93% | 1019.9 hPa | 0 mm | - | - | - |
| 1777808876 | 4.44° C | 93% | 1019.7 hPa | 0 mm | - | - | - |
| 1777808277 | 4.44° C | 92% | 1019.7 hPa | 0 mm | - | - | - |
| 1777807677 | 4.44° C | 92% | 1019.7 hPa | 0 mm | - | - | - |
| 1777807077 | 4.44° C | 91% | 1019.6 hPa | 0 mm | - | - | - |
| 1777806477 | 5° C | 91% | 1019.5 hPa | 0 mm | - | - | - |
* Rain latest hour (hover to see other rain measurements)
** Current wind speed in m/s (hover to see current wind gust speed)